Weather reports worldwide

Advertisment
Leconfield, United Kingdom (3382): temperature & dewpoint: 17.07.2019 09:00:00 - 23.07.2019 09:00:00 (BST)Leconfield, United Kingdom (3382): temperature -20cm & temperature -100cm: 17.07.2019 09:00:00 - 23.07.2019 09:00:00 (BST)Leconfield, United Kingdom (3382): wind speed & gusts: 17.07.2019 09:00:00 - 23.07.2019 09:00:00 (BST)Leconfield, United Kingdom (3382): wind direction: 17.07.2019 09:00:00 - 23.07.2019 09:00:00 (BST)Leconfield, United Kingdom (3382): reduced air pressure: 17.07.2019 09:00:00 - 23.07.2019 09:00:00 (BST)Leconfield, United Kingdom (3382): visibility: 17.07.2019 09:00:00 - 23.07.2019 09:00:00 (BST)Leconfield, United Kingdom (3382): sunshine duration: 17.07.2019 09:00:00 - 23.07.2019 09:00:00 (BST)Leconfield, United Kingdom (3382): precipitation: 17.07.2019 09:00:00 - 23.07.2019 09:00:00 (BST)
Date & Time tt [°C] td [°C] tt -20cm [°C] tt -100cm [°C] ff [km/h] ff [kn] fx [km/h] fx [kn] dd ppp [hPa] vv [km] sd [min] rr [mm]
23.07.2019 09:00:00 21,1 16,1 - - 8 4 - - SSW 1019,5 27 60 -
23.07.2019 08:00:00 19,6 16,3 - - 9 5 - - SW 1019,4 35 60 0,0
23.07.2019 07:00:00 16,4 15,8 - - 2 1 - - SW 1019,4 25 48 0,0
23.07.2019 06:00:00 14,0 13,8 - - 2 1 - - SSW 1019,4 18 0 0,0
23.07.2019 05:00:00 14,0 13,6 - - 5 3 - - SW 1019,3 17 0 0,0
23.07.2019 04:00:00 14,4 13,8 - - 5 3 - - WSW 1019,8 17 0 0,0
23.07.2019 03:00:00 15,8 15,0 - - 8 4 - - SSW 1019,7 27 0 0,0
23.07.2019 02:00:00 17,1 15,2 - - 2 1 - - S 1019,6 10 0 0,0
23.07.2019 01:00:00 18,5 15,8 - - 9 5 - - WSW 1019,5 10 - 0,0
23.07.2019 00:00:00 19,7 16,4 - - 15 8 - - SW 1019,3 10 0 0,0
22.07.2019 23:00:00 19,0 15,3 - - 9 5 - - WSW 1019,1 35 0 0,0
22.07.2019 22:00:00 20,4 15,5 - - 9 5 - - WSW 1018,8 45 0 0,0
22.07.2019 21:00:00 23,0 15,8 - - 16 9 - - WSW 1018,1 50 42 0,0
22.07.2019 20:00:00 25,5 15,8 - - 16 9 - - WSW 1018,0 10 60 0,0
22.07.2019 19:00:00 26,3 15,4 - - 24 13 - - WSW 1017,6 10 60 0,0
22.07.2019 18:00:00 26,8 15,8 - - 26 14 - - SW 1017,3 10 54 0,0
22.07.2019 17:00:00 26,7 16,1 - - 24 13 - - SW 1017,5 10 42 0,0
22.07.2019 16:00:00 26,9 16,5 - - 24 13 46 25 WSW 1017,3 35 24 0,0
22.07.2019 15:00:00 27,2 16,1 - - 28 15 - - W 1017,1 10 60 0,0
22.07.2019 14:00:00 26,4 14,8 - - 29 16 48 26 WSW 1017,1 35 60 0,0
22.07.2019 13:00:00 25,8 15,9 - - 31 17 48 26 WSW 1017,0 10 60 0,0
22.07.2019 12:00:00 25,6 17,1 - - 29 16 48 26 WSW 1016,7 35 60 0,0
22.07.2019 11:00:00 23,8 16,6 - - 29 16 50 27 WSW 1016,4 35 36 0,0
22.07.2019 10:00:00 22,8 18,0 16,5 15,2 26 14 - - SW 1016,0 45 0 0,0
22.07.2019 09:00:00 20,5 17,6 - - 22 12 - - SW 1015,7 29 0 0,0
22.07.2019 08:00:00 19,3 17,0 - - 22 12 - - SW 1015,1 10 0 0,0
22.07.2019 07:00:00 18,4 16,5 - - 18 10 - - SW 1014,8 35 0 0,0
22.07.2019 06:00:00 18,2 16,2 - - 24 13 - - SW 1013,9 10 0 0,0
22.07.2019 05:00:00 17,9 15,9 - - 21 11 - - SW 1014,0 10 0 0,0
22.07.2019 04:00:00 17,7 15,6 - - 22 12 - - SW 1013,9 30 0 0,0
22.07.2019 03:00:00 17,1 15,4 - - 24 13 - - SSW 1014,0 35 0 0,0
22.07.2019 02:00:00 16,7 15,6 - - 21 11 - - SSW 1014,8 10 0 1,0
22.07.2019 01:00:00 17,2 15,6 - - 21 11 - - SSW 1015,5 4,9 - 1,0
22.07.2019 00:00:00 17,8 15,5 - - 13 7 - - S 1015,9 10 0 0,2
21.07.2019 23:00:00 18,9 14,1 - - 11 6 - - S 1016,4 10 0 0,0
21.07.2019 22:00:00 19,0 13,9 - - 8 4 - - S 1017,0 30 0 0,0
21.07.2019 21:00:00 19,5 13,7 - - 8 4 - - S 1017,2 50 0 0,0
21.07.2019 20:00:00 20,2 13,5 - - 13 7 - - SSW 1017,3 50 0 0,0
21.07.2019 19:00:00 20,8 13,1 - - 16 9 - - SW 1017,3 45 0 0,0
21.07.2019 18:00:00 21,5 12,9 - - 18 10 - - SW 1017,4 10 0 0,0
21.07.2019 17:00:00 21,4 12,5 - - 21 11 - - SW 1017,6 50 0 0,0
21.07.2019 16:00:00 21,8 11,9 - - 24 13 - - SW 1017,9 10 18 0,0
21.07.2019 15:00:00 22,1 12,8 - - 21 11 - - SW 1017,9 10 6 0,0
21.07.2019 14:00:00 21,8 13,5 - - 18 10 - - SW 1017,8 35 6 0,0
21.07.2019 13:00:00 21,2 13,6 - - 16 9 - - SSW 1017,9 35 6 0,0
21.07.2019 12:00:00 21,0 12,2 - - 16 9 - - WSW 1018,1 40 36 0,0
21.07.2019 11:00:00 20,2 12,2 - - 18 10 - - SW 1017,8 50 36 0,0
21.07.2019 10:00:00 18,7 13,0 16,0 15,2 16 9 - - SW 1017,6 22 18 0,0
21.07.2019 09:00:00 16,9 12,8 - - 11 6 - - WSW 1017,2 35 0 0,0
21.07.2019 08:00:00 15,8 12,4 - - 11 6 - - WSW 1016,6 10 36 0,0
21.07.2019 07:00:00 13,7 11,6 - - 9 5 - - WSW 1016,2 40 48 0,0
21.07.2019 06:00:00 12,1 11,0 - - 9 5 - - WSW 1015,7 10 6 0,0
21.07.2019 05:00:00 11,0 10,0 - - 4 2 - - W 1015,1 16 0 0,0
21.07.2019 04:00:00 12,4 11,0 - - 9 5 - - WSW 1014,6 22 0 0,0
21.07.2019 03:00:00 12,3 10,9 - - 8 4 - - WSW 1014,1 10 0 0,0
21.07.2019 02:00:00 12,2 10,6 - - 8 4 - - WSW 1013,7 25 0 0,0
21.07.2019 01:00:00 13,5 10,9 - - 13 7 - - W 1013,2 10 - 0,0
21.07.2019 00:00:00 14,1 10,3 - - 15 8 - - W 1012,7 45 0 0,0
20.07.2019 23:00:00 14,5 10,0 - - 16 9 - - W 1011,9 10 0 0,0
20.07.2019 22:00:00 15,5 10,2 - - 18 10 - - W 1011,0 10 0 0,0
20.07.2019 21:00:00 16,7 9,8 - - 18 10 - - W 1009,7 10 54 0,0
20.07.2019 20:00:00 18,5 9,7 - - 24 13 52 28 W 1008,2 50 54 0,0
20.07.2019 19:00:00 19,4 9,6 - - 31 17 52 28 W 1007,3 10 60 0,0
20.07.2019 18:00:00 20,6 12,0 - - 34 18 52 28 W 1006,4 50 36 0,0
20.07.2019 17:00:00 21,0 13,7 - - 31 17 52 28 W 1005,3 50 48 0,0
20.07.2019 16:00:00 20,9 14,1 - - 34 18 54 29 W 1004,2 10 24 0,0
20.07.2019 15:00:00 19,3 14,0 - - 31 17 52 28 WSW 1003,7 10 12 0,0
20.07.2019 14:00:00 20,5 15,1 - - 24 13 52 28 W 1002,6 50 24 0,0
20.07.2019 13:00:00 21,1 15,4 - - 21 11 - - SW 1002,1 35 24 0,0
20.07.2019 12:00:00 19,4 14,4 - - 24 13 - - SW 1001,8 29 6 0,0
20.07.2019 11:00:00 19,7 13,9 - - 26 14 - - SW 1001,5 28 18 0,0
20.07.2019 10:00:00 19,3 15,4 16,2 15,2 18 10 - - SSW 1001,2 10 12 0,0
20.07.2019 09:00:00 18,6 16,4 - - 18 10 - - SSW 1001,5 19 6 0,0
20.07.2019 08:00:00 17,9 16,4 - - 13 7 - - S 1001,6 12 6 0,0
20.07.2019 07:00:00 17,2 16,2 - - 15 8 - - S 1001,8 10 0 0,0
20.07.2019 06:00:00 16,8 15,9 - - 13 7 - - S 1001,9 10 0 0,0
20.07.2019 05:00:00 16,5 15,7 - - 16 9 - - SSW 1002,3 10 0 0,0
20.07.2019 04:00:00 16,0 15,2 - - 13 7 - - SSW 1002,9 10 0 0,0
20.07.2019 03:00:00 16,3 15,2 - - 15 8 - - SSW 1003,2 14 0 0,0
20.07.2019 02:00:00 16,1 15,1 - - 8 4 - - S 1003,9 14 0 0,0
20.07.2019 01:00:00 16,7 15,8 - - 9 5 - - S 1003,8 10 - 0,0
20.07.2019 00:00:00 17,4 16,2 - - 15 8 - - SSW 1004,0 10 0 0,0
19.07.2019 23:00:00 17,8 16,8 - - 15 8 - - SSW 1004,4 10 0 0,0
19.07.2019 22:00:00 18,1 17,3 - - 15 8 - - SSW 1004,6 10 0 0,0
19.07.2019 21:00:00 18,1 17,3 - - 13 7 - - SSW 1004,5 10 0 0,0
19.07.2019 20:00:00 17,8 17,2 - - 11 6 - - S 1004,6 10 0 2,6
19.07.2019 19:00:00 17,7 16,7 - - 11 6 - - S 1005,2 9 0 0,2
19.07.2019 18:00:00 17,7 15,9 - - 13 7 - - S 1005,8 24 0 0,0
19.07.2019 17:00:00 17,3 15,5 - - 15 8 - - S 1006,4 10 0 0,0
19.07.2019 16:00:00 16,1 14,8 - - 13 7 - - S 1007,1 10 0 0,0
19.07.2019 15:00:00 16,7 15,0 - - 15 8 - - S 1007,7 30 6 0,0
19.07.2019 14:00:00 16,6 15,2 - - 15 8 - - SSE 1008,3 21 6 2,6
19.07.2019 13:00:00 15,6 14,4 - - 8 4 - - S 1009,0 10 0 1,2
19.07.2019 12:00:00 16,6 13,6 - - 13 7 - - SSW 1009,4 30 0 0,2
19.07.2019 11:00:00 17,1 12,6 - - 15 8 - - SSW 1009,3 10 0 0,2
19.07.2019 10:00:00 15,5 13,5 16,2 15,2 9 5 - - SSW 1009,7 29 0 0,0
19.07.2019 09:00:00 16,0 12,1 - - 15 8 - - SSW 1010,1 10 0 0,0
19.07.2019 08:00:00 16,1 12,1 - - 9 5 - - SSW 1009,9 10 54 0,0
19.07.2019 07:00:00 14,0 11,9 - - 9 5 - - SSW 1009,9 10 36 0,0
19.07.2019 06:00:00 11,5 10,7 - - 2 1 - - SW 1009,9 10 0 0,0
19.07.2019 05:00:00 11,4 10,1 - - 0 0 - - N 1009,9 30 0 0,0
19.07.2019 04:00:00 11,7 9,8 - - 5 3 - - SW 1010,0 10 0 0,0
19.07.2019 03:00:00 12,5 10,2 - - 5 3 - - SW 1010,1 10 0 0,0
19.07.2019 02:00:00 11,8 9,9 - - 5 3 - - SW 1010,1 40 0 0,0
19.07.2019 01:00:00 11,1 9,4 - - 8 4 - - SW 1010,4 10 - 0,0
19.07.2019 00:00:00 11,6 8,9 - - 4 2 - - SSE 1010,2 10 0 0,0
18.07.2019 23:00:00 13,6 9,5 - - 4 2 - - SW 1009,9 50 0 0,0
18.07.2019 22:00:00 15,1 9,7 - - 13 7 - - WSW 1009,6 10 0 0,0
18.07.2019 21:00:00 17,1 10,0 - - 9 5 - - W 1009,3 40 48 0,0
18.07.2019 20:00:00 19,4 9,6 - - 18 10 - - W 1008,8 50 36 0,0
18.07.2019 19:00:00 19,1 10,6 - - 13 7 - - WSW 1008,2 50 6 0,0
18.07.2019 18:00:00 19,4 10,5 - - 16 9 - - W 1008,2 10 0 0,0
18.07.2019 17:00:00 19,8 10,8 - - 18 10 - - W 1008,1 10 18 0,0
18.07.2019 16:00:00 20,5 10,1 - - 24 13 - - W 1007,8 45 48 0,0
18.07.2019 15:00:00 20,2 10,8 - - 22 12 - - W 1007,9 10 24 0,0
18.07.2019 14:00:00 20,1 10,2 - - 24 13 - - WSW 1007,7 10 18 0,0
18.07.2019 13:00:00 20,3 9,6 - - 24 13 - - W 1007,2 10 48 0,0
18.07.2019 12:00:00 19,8 9,8 - - 21 11 - - W 1007,1 45 48 0,0
18.07.2019 11:00:00 19,0 10,6 - - 21 11 - - W 1007,1 10 54 0,0
18.07.2019 10:00:00 16,9 10,5 16,7 15,2 18 10 - - W 1007,1 10 42 0,0
18.07.2019 09:00:00 15,6 11,5 - - 16 9 - - W 1007,0 10 0 0,0
18.07.2019 08:00:00 15,8 13,9 - - 11 6 - - W 1006,4 30 0 0,0
18.07.2019 07:00:00 15,8 14,0 - - 15 8 - - SW 1006,1 10 0 0,0
18.07.2019 06:00:00 15,8 14,1 - - 15 8 - - SSW 1006,1 13 0 0,0
18.07.2019 05:00:00 15,7 14,3 - - 9 5 - - S 1006,3 10 0 0,0
18.07.2019 04:00:00 15,6 14,4 - - 13 7 - - SSW 1006,5 14 0 0,0
18.07.2019 03:00:00 16,2 13,8 - - 16 9 - - SSW 1007,2 10 0 0,0
18.07.2019 02:00:00 16,1 14,1 - - 9 5 - - SSW 1007,7 18 0 0,0
18.07.2019 01:00:00 16,1 14,3 - - 8 4 - - S 1008,3 10 - 0,0
18.07.2019 00:00:00 15,9 13,7 - - 5 3 - - S 1008,8 10 0 0,0
17.07.2019 23:00:00 16,2 13,7 - - 5 3 - - SW 1009,3 10 0 0,0
17.07.2019 22:00:00 15,9 14,1 - - 5 3 - - WSW 1009,7 10 0 0,0
17.07.2019 21:00:00 16,4 13,8 - - 18 10 - - W 1009,7 20 0 0,0
17.07.2019 20:00:00 20,5 13,5 - - 9 5 - - SW 1009,2 35 0 0,0
17.07.2019 19:00:00 21,8 12,6 - - 15 8 - - SW 1009,5 45 0 0,0
17.07.2019 18:00:00 22,3 12,5 - - 15 8 - - WSW 1009,9 40 0 0,0
17.07.2019 17:00:00 22,8 12,8 - - 13 7 - - WSW 1010,2 10 0 0,0
17.07.2019 16:00:00 22,9 12,7 - - 21 11 - - W 1010,8 28 0 0,0
17.07.2019 15:00:00 23,7 12,9 - - 24 13 - - WSW 1011,0 10 6 0,0
17.07.2019 14:00:00 24,1 13,0 - - 21 11 - - SW 1011,4 30 18 0,0
17.07.2019 13:00:00 23,5 13,2 - - 13 7 - - SW 1012,0 10 36 0,0
17.07.2019 12:00:00 23,4 12,9 - - 13 7 - - SSW 1012,4 35 36 0,0
17.07.2019 11:00:00 22,5 12,5 - - 11 6 - - SSW 1013,1 10 36 0,0
17.07.2019 10:00:00 21,8 12,4 16,4 15,2 8 4 - - S 1013,6 26 54 0,0
17.07.2019 09:00:00 20,1 11,7 - - 4 2 - - WSW 1014,0 10 60 0,0

tt = temperature
td = dewpoint
tt -20cm = temperature -20cm
tt -100cm = temperature -100cm
ff = wind speed
fx = gusts
dd = wind direction
ppp = reduced air pressure
vv = visibility
sd = sunshine duration
rr = precipitation

Next stations